Yakima, WA

1:44 PM PST on February 14, 2016 (GMT -0800)
Yakima Air Term-McAllister

Weather History for KYKM - August, 2014

Change the Weather History Date:

Friday, August 22, 2014

  Actual Average Record
Temperature  
Mean Temperature 70 °F 68 °F  
Max Temperature 84 °F 86 °F 99 °F (1961)
Min Temperature 56 °F 51 °F 35 °F (1960)
Degree Days  
Heating Degree Days 0 1  
Month to date heating degree days 0 15  
Since 1 June heating degree days 35 134  
Since 1 July heating degree days 5 36  
Cooling Degree Days 5 4  
Month to date cooling degree days 249 130  
Year to date cooling degree days 782 410  
Since 1 June cooling degree days 759 390  
Growing Degree Days 20 (Base 50)    
Moisture  
Dew Point 48 °F    
Average Humidity 51    
Maximum Humidity 73    
Minimum Humidity 28    
Precipitation  
Precipitation 0.17 in 0.01 in 0.51 in (2004)
Month to date precipitation 0.43 0.17  
Year to date precipitation 3.49 4.68  
Snow  
Snow 0.00 in 0.00 in 0.00 in (2002)
Month to date snowfall 0.0 0.0  
Year to date snowfall 19.9 8.6  
Since 1 July snowfall 0.0 0.0  
Snow Depth 0.00 in    
Sea Level Pressure  
Sea Level Pressure 29.97 in    
Wind  
Wind Speed 6 mph (WNW)    
Max Wind Speed 18 mph    
Max Gust Speed 25 mph    
Visibility 10 miles    
Events Rain , Thunderstorm    
T = Trace of Precipitation, MM = Missing Value Source: NWS Daily Summary

Daily Weather History Graph

Daily Weather History Graph

Search for Another Location

Airport or City:

Trip Planner

Search our weather history database for the weather conditions in past years. The results will help you decide how hot, cold, wet, or windy it might be!

Date:

Astronomy

Aug. 22, 2014 Rise Set
Actual Time 6:09 AM PDT 7:59 PM PDT
Civil Twilight 5:37 AM PDT 8:31 PM PDT
Nautical Twilight 4:57 AM PDT 9:11 PM PDT
Astronomical Twilight 4:14 AM PDT 9:54 PM PDT
Moon 3:32 AM PDT (8/22) 6:14 PM PDT (8/22)
Length of Visible Light 14h 54m
Length of Day
13h 50m
Waning Crescent, 7% of the Moon is Illuminated
Aug 22
Waning Crescent
Aug 25
New
Sep 2
First Quarter
Sep 8
Full
Sep 15
Last Quarter

Hourly Weather History & Observations

Time (PDT) Temp. Dew Point Humidity Pressure Visibility Wind Dir Wind Speed Gust Speed Precip Events Conditions
12:53 AM 66.0 °F 42.1 °F 42% 29.89 in 10.0 mi NNW 6.9 mph - N/A   Scattered Clouds
1:53 AM 64.0 °F 39.0 °F 40% 29.90 in 10.0 mi NW 6.9 mph - N/A   Clear
2:53 AM 60.1 °F 42.1 °F 51% 29.91 in 10.0 mi NW 8.1 mph - N/A   Clear
3:53 AM 62.1 °F 44.1 °F 52% 29.91 in 10.0 mi NNW 6.9 mph - N/A   Clear
4:53 AM 57.0 °F 44.1 °F 62% 29.93 in 10.0 mi NW 4.6 mph - N/A   Clear
5:53 AM 60.1 °F 44.1 °F 55% 29.94 in 10.0 mi NNW 4.6 mph - N/A   Clear
6:53 AM 57.9 °F 45.0 °F 62% 29.96 in 10.0 mi West 5.8 mph - N/A   Mostly Cloudy
7:53 AM 61.0 °F 45.0 °F 56% 29.97 in 10.0 mi WNW 5.8 mph - N/A   Mostly Cloudy
8:53 AM 66.9 °F 44.1 °F 44% 29.97 in 10.0 mi WNW 3.5 mph - N/A   Mostly Cloudy
9:53 AM 70.0 °F 45.0 °F 41% 29.97 in 10.0 mi NW 8.1 mph - N/A   Mostly Cloudy
10:53 AM 72.0 °F 45.0 °F 38% 29.97 in 10.0 mi WNW 3.5 mph - N/A   Mostly Cloudy
11:53 AM 73.9 °F 46.9 °F 38% 29.97 in 10.0 mi WSW 3.5 mph - N/A   Mostly Cloudy
12:53 PM 78.1 °F 46.9 °F 33% 29.96 in 10.0 mi West 4.6 mph - N/A   Mostly Cloudy
1:53 PM 79.0 °F 46.9 °F 32% 29.94 in 10.0 mi South 4.6 mph - N/A   Mostly Cloudy
2:53 PM 81.0 °F 46.9 °F 30% 29.93 in 10.0 mi SW 3.5 mph - 0.00 in   Mostly Cloudy
3:53 PM 82.9 °F 46.9 °F 28% 29.93 in 10.0 mi East 6.9 mph - N/A   Mostly Cloudy
4:53 PM 81.0 °F 46.9 °F 30% 29.93 in 10.0 mi Variable 5.8 mph - N/A   Mostly Cloudy
4:59 PM 79.0 °F 51.1 °F 38% 29.96 in 6.0 mi ESE 8.1 mph - 0.01 in Rain , Thunderstorm Light Thunderstorms and Rain
5:51 PM 68.0 °F 57.2 °F 68% 29.99 in 10.0 mi South 6.9 mph - 0.17 in   Mostly Cloudy
5:53 PM 69.1 °F 57.0 °F 65% 29.98 in 10.0 mi South 5.8 mph - 0.17 in Thunderstorm Mostly Cloudy
6:19 PM 72.0 °F 57.9 °F 61% 29.99 in 10.0 mi Calm Calm - N/A   Scattered Clouds
6:53 PM 73.0 °F 55.9 °F 55% 30.00 in 10.0 mi NNW 6.9 mph - N/A   Mostly Cloudy
7:53 PM 71.1 °F 52.0 °F 51% 30.01 in 10.0 mi NE 6.9 mph - N/A   Mostly Cloudy
8:53 PM 64.9 °F 54.0 °F 68% 30.04 in 10.0 mi NNW 6.9 mph - N/A   Scattered Clouds
9:53 PM 69.1 °F 52.0 °F 54% 30.05 in 10.0 mi NNW 8.1 mph - 0.00 in   Overcast
10:53 PM 64.0 °F 55.0 °F 73% 30.06 in 10.0 mi West 6.9 mph - N/A   Scattered Clouds
11:53 PM 63.0 °F 54.0 °F 72% 30.06 in 10.0 mi West 5.8 mph - N/A   Overcast